Home > Time Zones > World Clock > Weather > U.S.A. > Gary > Past weeks

Flag for U.S.A. Weather past 2 weeks in Gary, Indiana, U.S.A.

Now
47 °F

Scattered clouds.


Feels Like: 43 °F
Forecast: 36 / 56 °F
Wind: 8 mph from West

Location: Lansing Municipal Airport

Current Time: Mar 30, 2015 at 10:07:26 AM

Latest Report: Mar 30, 2015 at 9:35 AM


Visibility: 10 mi

Pressure: 30.08 "Hg

Humidity: 49%

Dew point: 29 °F

Location of GaryLocation

Historic Weather in Gary — Graph

°F

Gary temperature yesterday

Maximum temperature yesterday: 47 °F (at 8:55 PM)
Minimum temperature yesterday: 21 °F (at 2:15 AM)
Average temperature yesterday: 35 °F

Past Weeks' High & Low Weather Summary

 TemperatureHumidityPressure
High71 °F (Mar 16, 4:55 PM)93% (Mar 20, 5:15 AM)30.36 "Hg (Mar 20, 5:15 AM)
Low20 °F (Mar 28, 7:15 AM)19% (Mar 18, 1:35 PM)29.76 "Hg (Mar 16, 6:15 PM)
Average37 °F60%30.14 "Hg
* Reported Mar 15 8:15 AM — Mar 30 8:55 AM, Gary, Weather by CustomWeather, © 2015

Note: Actual official high and low records may vary slightly from our data, if they occured in-between our weather recording intervals... More about our weather records

Advertising

Gary weather history for previous 24 hours

 ConditionsComfort  
Time TempWeatherWind HumidityBarometerVisibility
8:55 AM
Mon, Mar 30
44 °FSunny.8 mph54%30.07 "Hg10 mi
8:15 AM40 °FSunny.7 mph65%30.06 "Hg10 mi
7:55 AM37 °FSunny.8 mph71%30.05 "Hg10 mi
7:35 AM35 °FSunny.7 mph76%30.05 "Hg10 mi
7:15 AM33 °FSunny.7 mph78%30.04 "Hg10 mi
6:55 AM32 °FSunny.6 mph77%30.04 "Hg10 mi
6:35 AM33 °FClear.6 mph76%30.03 "Hg10 mi
6:15 AM33 °FClear.5 mph76%30.02 "Hg10 mi
5:55 AM33 °FClear.6 mph78%30.01 "Hg10 mi
5:35 AM33 °FClear.5 mph78%30.00 "Hg10 mi
5:15 AM34 °FClear.6 mph75%30.00 "Hg10 mi
4:55 AM34 °FClear.No wind75%29.99 "Hg10 mi
4:15 AM34 °FClear.6 mph77%29.98 "Hg10 mi
3:55 AM35 °FClear.6 mph75%29.98 "Hg10 mi
3:15 AM37 °FClear.6 mph72%29.97 "Hg10 mi
2:55 AM38 °FClear.6 mph70%29.98 "Hg10 mi
2:15 AM40 °FPassing clouds.6 mph68%29.97 "Hg10 mi
1:55 AM40 °FPassing clouds.5 mph68%29.97 "Hg10 mi
1:35 AM40 °FPassing clouds.5 mph68%29.96 "Hg10 mi
1:15 AM40 °FPassing clouds.5 mph70%29.96 "Hg10 mi
12:55 AM39 °FClear.5 mph73%29.96 "Hg10 mi
12:15 AM40 °FPartly cloudy.5 mph73%29.95 "Hg10 mi
11:55 PM
Sun, Mar 29
39 °FPartly cloudy.No wind76%29.95 "Hg10 mi
11:35 PM40 °FPartly cloudy.5 mph71%29.94 "Hg10 mi
11:15 PM43 °FPassing clouds.3 mph66%29.94 "Hg10 mi
10:55 PM43 °FPassing clouds.5 mph66%29.93 "Hg10 mi
10:15 PM44 °FPassing clouds.8 mph63%29.93 "Hg10 mi
9:55 PM45 °FPassing clouds.10 mph61%29.92 "Hg10 mi
9:15 PM47 °FMostly cloudy.10 mph57%29.90 "Hg10 mi
8:55 PM47 °FOvercast.17 mph59%29.88 "Hg10 mi
8:15 PM47 °FMostly cloudy.18 mph63%29.82 "Hg10 mi
7:55 PM47 °FOvercast.17 mph62%29.80 "Hg10 mi
7:35 PM46 °FMostly cloudy.17 mph62%29.80 "Hg10 mi
7:15 PM46 °FOvercast.13 mph60%29.79 "Hg10 mi
6:55 PM46 °FMore clouds than sun.18 mph59%29.79 "Hg10 mi
6:35 PM46 °FMore clouds than sun.18 mph59%29.80 "Hg10 mi
6:15 PM46 °FMore clouds than sun.21 mph57%29.80 "Hg10 mi
5:55 PM46 °FBroken clouds.18 mph59%29.80 "Hg10 mi
5:35 PM46 °FPartly sunny.15 mph61%29.81 "Hg10 mi
5:15 PM46 °FOvercast.18 mph62%29.83 "Hg10 mi
4:55 PM44 °FOvercast.20 mph63%29.84 "Hg10 mi
4:15 PM41 °FOvercast.21 mph68%29.84 "Hg10 mi
3:55 PM40 °FOvercast.18 mph69%29.85 "Hg10 mi
3:35 PM38 °FOvercast.18 mph70%29.86 "Hg10 mi
3:15 PM37 °FOvercast.18 mph69%29.87 "Hg10 mi
2:55 PM36 °FOvercast.23 mph70%29.87 "Hg10 mi
2:35 PM36 °FMostly cloudy.23 mph72%29.88 "Hg10 mi
2:15 PM36 °FOvercast.25 mph72%29.90 "Hg10 mi
1:55 PM35 °FMore clouds than sun.22 mph75%29.91 "Hg10 mi
1:35 PM35 °FRain. Overcast.22 mph77%29.95 "Hg4 mi
1:15 PM36 °FRain. More clouds than sun.22 mph69%29.98 "Hg5 mi
12:55 PM36 °FMostly cloudy.21 mph65%29.94 "Hg10 mi
12:35 PM36 °FLight rain. Cloudy.23 mph69%29.94 "Hg7 mi
12:15 PM36 °FLight rain. Mostly cloudy.24 mph66%29.95 "Hg5 mi
11:55 AM36 °FRain. More clouds than sun.22 mph58%30.00 "Hg5 mi
11:15 AM38 °FBroken clouds.23 mph40%30.03 "Hg10 mi
10:55 AM38 °FScattered clouds.26 mph40%30.04 "Hg10 mi
10:15 AM37 °FSunny.21 mph42%30.10 "Hg10 mi
Weather by CustomWeather, © 2015

See weather overviewHow to use our weather pages